GW6246 Weather Reports


Display with metric or nautical units.
time (UTC)temp
F
wind
direction
speed
MPH
gust
MPH
rain 1hr
in
rain 24hr
in
rain mn
in
humidity
%
barometer
mb
20260507064629 57 0 0.0 0.0 0.00 0.00 0.00 86 1017.6
20260507064129 58 0 0.0 0.0 0.00 0.00 0.00 86 1017.6
20260507063629 58 0 0.0 0.0 0.00 0.00 0.00 86 1017.6
20260507062629 58 339 0.0 0.0 0.00 0.00 0.00 86 1017.6
20260507061629 58 0 0.0 0.0 0.00 0.00 0.00 86 1017.6
20260507060629 58 0 0.0 0.0 0.00 0.00 0.00 86 1017.6
20260507055629 58 0 0.0 0.0 0.00 0.00 0.00 86 1017.6
20260507054629 58 0 0.0 0.0 0.00 0.00 0.00 86 1017.6
20260507053129 59 0 0.0 0.0 0.00 0.00 0.00 85 1017.6
20260507052629 59 0 0.0 0.0 0.00 0.00 0.00 85 1017.6
20260507051629 59 0 0.0 0.0 0.00 0.00 0.00 84 1017.3
20260507051129 59 0 0.0 0.0 0.00 0.00 0.00 84 1017.3
20260507050129 59 0 0.0 0.0 0.00 0.00 0.00 83 1017.6
20260507045629 60 0 0.0 0.0 0.00 0.00 0.00 83 1017.6
20260507044129 60 0 0.0 0.0 0.00 0.00 0.00 82 1017.3
20260507043629 60 0 0.0 0.0 0.00 0.00 0.00 82 1017.6
20260507042629 60 311 0.0 0.0 0.00 0.00 0.00 81 1017.6
20260507042129 60 231 0.0 0.0 0.00 0.00 0.00 81 1017.3
20260507041629 60 0 0.0 0.0 0.00 0.00 0.00 80 1017.3
20260507041129 61 3 0.0 0.0 0.00 0.00 0.00 80 1017.3
20260507040629 61 26 0.0 0.0 0.00 0.00 0.00 79 1017.3
20260507040129 61 22 0.0 0.0 0.00 0.00 0.00 79 1017.3
20260507034629 61 29 0.0 0.0 0.00 0.00 0.00 77 1016.9
20260507033629 62 95 0.0 0.0 0.00 0.00 0.00 76 1016.9
20260507033128 62 106 0.0 0.0 0.00 0.00 0.00 75 1017.3
20260507032129 62 82 0.0 0.0 0.00 0.00 0.00 75 1016.9
20260507031629 63 3 0.0 0.0 0.00 0.00 0.00 74 1016.9
20260507031128 63 164 0.0 0.0 0.00 0.00 0.00 73 1016.9
20260507030128 63 29 0.0 0.0 0.00 0.00 0.00 72 1016.6
20260507025129 64 35 0.0 0.0 0.00 0.00 0.00 72 1016.6
20260507024129 64 65 0.0 0.0 0.00 0.00 0.00 71 1016.6
20260507023629 65 328 0.0 0.0 0.00 0.00 0.00 71 1016.6
20260507022629 65 103 0.0 0.0 0.00 0.00 0.00 71 1016.3
20260507022128 66 63 1.0 1.0 0.00 0.00 0.00 69 1016.3
20260507021128 66 54 0.0 0.0 0.00 0.00 0.00 69 1016.3
20260507020128 67 96 0.0 0.0 0.00 0.00 0.00 67 1016.3
20260507015628 67 71 1.0 1.0 0.00 0.00 0.00 67 1016.3
20260507014629 68 19 0.0 0.0 0.00 0.00 0.00 64 1016.3
20260507013628 68 13 0.0 0.0 0.00 0.00 0.00 63 1015.9
20260507012628 69 73 1.0 1.0 0.00 0.00 0.00 63 1015.9
20260507011628 69 131 1.0 1.0 0.00 0.00 0.00 63 1015.9
20260507011128 70 51 1.0 1.0 0.00 0.00 0.00 62 1015.9
20260507010128 70 77 1.0 1.0 0.00 0.00 0.00 61 1015.9
20260507005628 70 100 1.0 1.0 0.00 0.00 0.00 60 1015.9
20260507004628 71 47 1.0 1.0 0.00 0.00 0.00 58 1015.9
20260507004128 71 89 1.0 1.0 0.00 0.00 0.00 56 1015.9
20260507003128 72 27 1.0 1.0 0.00 0.00 0.00 55 1015.9
20260507002628 72 138 1.0 1.0 0.00 0.00 0.00 55 1015.6
20260507001128 73 144 1.0 1.0 0.00 0.00 0.00 52 1015.6
20260507000128 73 92 2.0 2.0 0.00 0.00 0.00 53 1015.6
20260506235128 73 106 2.0 2.0 0.00 0.00 0.00 52 1015.6
20260506233128 74 130 1.0 1.0 0.00 0.00 0.00 52 1015.6
20260506232128 75 161 1.0 1.0 0.00 0.00 0.00 50 1015.6
20260506231628 75 35 1.0 1.0 0.00 0.00 0.00 52 1015.6
20260506230628 75 58 1.0 1.0 0.00 0.00 0.00 50 1015.9
20260506230129 75 120 1.0 1.0 0.00 0.00 0.00 52 1015.9
20260506225128 74 128 1.0 1.0 0.00 0.00 0.00 53 1015.9
20260506224628 74 124 1.0 1.0 0.00 0.00 0.00 53 1016.3
20260506223628 74 68 2.0 2.0 0.00 0.00 0.00 53 1016.3
20260506223128 73 151 2.0 2.0 0.00 0.00 0.00 54 1016.3
20260506222128 73 56 2.0 2.0 0.00 0.00 0.00 55 1016.3
20260506221628 72 170 2.0 2.0 0.00 0.00 0.00 56 1016.3
20260506220628 72 143 2.0 2.0 0.00 0.00 0.00 57 1016.3
20260506215628 72 145 2.0 2.0 0.00 0.00 0.00 58 1016.6
20260506214628 72 128 1.0 1.0 0.00 0.00 0.00 58 1016.6
20260506213628 72 130 1.0 1.0 0.00 0.00 0.00 58 1016.9
20260506212628 71 138 2.0 2.0 0.00 0.00 0.00 60 1016.9
20260506211628 71 107 2.0 2.0 0.00 0.00 0.00 60 1016.9
20260506210628 71 108 2.0 2.0 0.00 0.00 0.00 60 1016.9
20260506205628 70 168 2.0 2.0 0.00 0.00 0.00 62 1016.9
20260506204628 70 133 2.0 2.0 0.00 0.00 0.00 64 1016.9
20260506204128 70 127 2.0 2.0 0.00 0.00 0.00 62 1016.9
20260506203128 69 160 2.0 2.0 0.00 0.00 0.00 63 1017.3
20260506202628 69 161 2.0 2.0 0.00 0.00 0.00 63 1017.3
20260506201628 69 169 2.0 2.0 0.00 0.00 0.00 64 1017.3
20260506201128 68 167 2.0 2.0 0.00 0.00 0.00 64 1017.3
20260506200128 69 166 2.0 2.0 0.00 0.00 0.00 64 1017.6
20260506195128 68 150 2.0 2.0 0.00 0.00 0.00 64 1017.6
20260506194627 68 150 2.0 2.0 0.00 0.00 0.00 63 1017.6
20260506193627 69 157 1.0 1.0 0.00 0.00 0.00 63 1017.6
20260506192628 69 92 1.0 1.0 0.00 0.00 0.00 57 1017.6
20260506192129 69 83 1.0 1.0 0.00 0.00 0.00 56 1017.9
20260506190128 68 14 1.0 1.0 0.00 0.00 0.00 59 1017.9
20260506185627 67 7 1.0 1.0 0.00 0.00 0.00 59 1017.9
20260506184628 67 140 1.0 1.0 0.00 0.00 0.00 60 1017.9
20260506183627 67 22 1.0 1.0 0.00 0.00 0.00 61 1018.3
20260506183127 67 11 1.0 1.0 0.00 0.00 0.00 60 1018.3
20260506182127 66 128 1.0 1.0 0.00 0.00 0.00 61 1018.3
20260506180127 65 328 1.0 1.0 0.00 0.00 0.00 63 1018.3
20260506175127 64 3 0.0 0.0 0.00 0.00 0.00 63 1018.3
20260506174628 64 152 0.0 0.0 0.00 0.00 0.00 66 1018.3
20260506173627 63 171 1.0 1.0 0.00 0.00 0.00 68 1018.3
20260506173127 63 189 1.0 1.0 0.00 0.00 0.00 69 1018.3
20260506172127 62 160 1.0 1.0 0.00 0.00 0.00 70 1018.3
20260506171627 62 199 1.0 1.0 0.00 0.00 0.00 72 1018.3
20260506171127 62 136 1.0 1.0 0.00 0.00 0.00 72 1018.3
20260506170627 62 177 1.0 1.0 0.00 0.00 0.00 72 1018.6
20260506165627 61 4 0.0 0.0 0.00 0.00 0.00 73 1018.6
20260506165127 61 265 0.0 0.0 0.00 0.00 0.00 74 1018.6
20260506164627 61 205 0.0 0.0 0.00 0.00 0.00 75 1018.6
20260506163627 60 185 0.0 0.0 0.00 0.00 0.00 76 1018.6
20260506162627 60 11 0.0 0.0 0.00 0.00 0.00 76 1018.6
20260506161627 59 50 0.0 0.0 0.00 0.00 0.00 79 1018.6
20260506160627 58 176 0.0 0.0 0.00 0.00 0.00 79 1018.6
20260506155627 57 168 0.0 0.0 0.00 0.00 0.00 81 1018.6
20260506154627 57 0 0.0 0.0 0.00 0.00 0.00 83 1018.6
20260506153627 56 0 0.0 0.0 0.00 0.00 0.00 84 1018.3
20260506152627 55 177 0.0 0.0 0.00 0.00 0.00 86 1018.3
20260506151627 54 260 0.0 0.0 0.00 0.00 0.00 88 1018.6
20260506151127 53 275 0.0 0.0 0.00 0.00 0.00 89 1018.3
20260506150127 52 0 0.0 0.0 0.00 0.00 0.00 86 1018.6
20260506145627 52 0 0.0 0.0 0.00 0.00 0.00 84 1018.3
20260506144627 52 0 0.0 0.0 0.00 0.00 0.00 83 1018.3
20260506143627 51 0 0.0 0.0 0.00 0.00 0.00 84 1018.3
20260506142627 51 0 0.0 0.0 0.00 0.00 0.00 83 1018.3
20260506141627 51 326 0.0 0.0 0.00 0.00 0.00 84 1018.3
20260506141127 50 355 0.0 0.0 0.00 0.00 0.00 84 1018.3
20260506140127 50 0 0.0 0.0 0.00 0.00 0.00 83 1017.9
20260506135627 50 330 0.0 0.0 0.00 0.00 0.00 82 1017.9
20260506135126 50 354 0.0 0.0 0.00 0.00 0.00 83 1017.9
20260506134127 50 355 0.0 0.0 0.00 0.00 0.00 83 1017.9
20260506133127 50 0 0.0 0.0 0.00 0.00 0.00 83 1017.6
20260506132627 50 0 0.0 0.0 0.00 0.00 0.00 83 1017.6
20260506132127 50 0 0.0 0.0 0.00 0.00 0.00 84 1017.6
20260506131127 50 0 0.0 0.0 0.00 0.00 0.00 84 1017.6
20260506130627 50 0 0.0 0.0 0.00 0.00 0.00 84 1017.6
20260506125627 50 353 0.0 0.0 0.00 0.00 0.00 85 1017.6
20260506125126 50 354 0.0 0.0 0.00 0.00 0.00 85 1017.3
20260506123127 49 0 0.0 0.0 0.00 0.00 0.00 85 1017.3
20260506122626 49 353 0.0 0.0 0.00 0.00 0.00 85 1017.3
20260506122126 49 351 0.0 0.0 0.00 0.00 0.00 86 1017.3
20260506121627 50 350 0.0 0.0 0.00 0.00 0.00 86 1017.3
20260506120626 50 359 0.0 0.0 0.00 0.00 0.00 86 1017.3
20260506120126 50 1 0.0 0.0 0.00 0.00 0.00 86 1017.3
20260506115126 49 356 0.0 0.0 0.00 0.00 0.00 86 1017.3
20260506114627 49 359 0.0 0.0 0.00 0.00 0.00 86 1017.3
20260506113626 50 2 0.0 0.0 0.00 0.00 0.00 86 1017.3
20260506112626 50 357 0.0 0.0 0.00 0.00 0.00 86 1017.3
20260506111126 50 359 0.0 0.0 0.00 0.00 0.00 87 1017.3
20260506110626 50 7 0.0 0.0 0.00 0.00 0.00 87 1017.3
20260506105626 50 2 0.0 0.0 0.00 0.00 0.00 87 1017.3
20260506105126 50 0 0.0 0.0 0.00 0.00 0.00 87 1017.3
20260506104126 50 1 0.0 0.0 0.00 0.00 0.00 87 1017.3
20260506102626 50 3 0.0 0.0 0.00 0.00 0.00 86 1017.3
20260506101626 50 354 0.0 0.0 0.00 0.00 0.00 84 1017.3
20260506100626 50 357 0.0 0.0 0.00 0.00 0.00 85 1017.3
20260506093626 50 1 0.0 0.0 0.00 0.00 0.00 86 1017.3
20260506092626 51 358 0.0 0.0 0.00 0.00 0.00 85 1017.3
20260506092126 51 0 0.0 0.0 0.00 0.00 0.00 85 1017.3
20260506091126 50 356 0.0 0.0 0.00 0.00 0.00 86 1017.3
20260506085626 50 351 0.0 0.0 0.00 0.00 0.00 85 1017.6
20260506084626 50 0 0.0 0.0 0.00 0.00 0.00 86 1017.6
20260506083626 50 351 0.0 0.0 0.00 0.00 0.00 86 1017.6
20260506082626 50 3 0.0 0.0 0.00 0.00 0.00 86 1017.9
20260506082126 50 359 0.0 0.0 0.00 0.00 0.00 86 1017.9
20260506081126 50 358 0.0 0.0 0.00 0.00 0.00 86 1017.9
20260506072126 52 348 0.0 0.0 0.00 0.00 0.00 85 1017.9
20260506071626 52 0 0.0 0.0 0.00 0.00 0.00 85 1017.9
20260506071126 52 0 0.0 0.0 0.00 0.00 0.00 84 1017.9
20260506070131 53 0 0.0 0.0 0.00 0.00 0.00 84 1017.9